,,Stat5,,Stat1,,Stat2,,Stat3,,Stat4,,Wind1,,Wind1,
time,status,PA1M_AVG,status,PR1M_SUM,status,RH1M_AVG,status,SR1M_AVG,status,TA1M_AVG,status,W1dAve1m,status,W1sAve1m,
2001-09-12, 00:00:00,VALID,917.896,VALID,0,VALID,99.0733,VALID,-0.0169808,VALID,19.617,VALID,17,VALID,1.2053,
2001-09-12, 00:01:00,VALID,917.896,VALID,0,VALID,99.0771,VALID,-0.0509425,VALID,19.62,VALID,18,VALID,1.32071,
2001-09-12, 00:02:00,VALID,917.885,VALID,0,VALID,99.0809,VALID,0,VALID,19.6167,VALID,19,VALID,1.22155,
2001-09-12, 00:03:00,VALID,917.871,VALID,0,VALID,99.0898,VALID,0,VALID,19.6157,VALID,8,VALID,1.80188,
2001-09-12, 00:04:00,VALID,917.857,VALID,0,VALID,99.0974,VALID,0,VALID,19.6321,VALID,19,VALID,1.77323,
2001-09-12, 00:05:00,VALID,917.869,VALID,0,VALID,99.1089,VALID,0,VALID,19.6354,VALID,14,VALID,1.34395,
2001-09-12, 00:06:00,VALID,917.851,VALID,0,VALID,99.1241,VALID,0,VALID,19.6456,VALID,9,VALID,1.22634,
2001-09-12, 00:07:00,VALID,917.854,VALID,0,VALID,99.1241,VALID,0,VALID,19.652,VALID,6,VALID,0.964258,
2001-09-12, 00:08:00,VALID,917.834,VALID,0,VALID,99.1381,VALID,-0.0169808,VALID,19.6682,VALID,8,VALID,1.17925,
2001-09-12, 00:09:00,VALID,917.818,VALID,0,VALID,99.1496,VALID,0,VALID,19.6744,VALID,356,VALID,1.15148,
2001-09-12, 00:10:00,VALID,917.78,VALID,0,VALID,99.1546,VALID,0,VALID,19.6873,VALID,10,VALID,1.7897,
2001-09-12, 00:11:00,VALID,917.743,VALID,0,VALID,99.1674,VALID,0,VALID,19.6838,VALID,348,VALID,1.18627,
2001-09-12, 00:12:00,VALID,917.717,VALID,0,VALID,99.161,VALID,0,VALID,19.7032,VALID,347,VALID,0.878167,
2001-09-12, 00:13:00,VALID,917.709,VALID,0,VALID,99.175,VALID,0,VALID,19.7099,VALID,353,VALID,1.55785,
2001-09-12, 00:14:00,VALID,917.703,VALID,0,VALID,99.1839,VALID,-0.0339617,VALID,19.7263,VALID,8,VALID,1.00312,
2001-09-12, 00:15:00,VALID,917.71,VALID,0,VALID,99.1915,VALID,-0.0169808,VALID,19.7387,VALID,324,VALID,0.873766,
2001-09-12, 00:16:00,VALID,917.707,VALID,0,VALID,99.203,VALID,0,VALID,19.7681,VALID,342,VALID,0.779561,
2001-09-12, 00:17:00,VALID,917.715,VALID,0,VALID,99.2182,VALID,-0.0169808,VALID,19.7874,VALID,350,VALID,0.454459,
2001-09-12, 00:18:00,VALID,917.715,VALID,0,VALID,99.2195,VALID,-0.0169808,VALID,19.7939,VALID,360,VALID,0.275977,
2001-09-12, 00:19:00,VALID,917.698,VALID,0,VALID,99.2233,VALID,0,VALID,19.823,VALID,345,VALID,0.496711,
2001-09-12, 00:20:00,VALID,917.692,VALID,0,VALID,99.2309,VALID,0,VALID,19.8518,VALID,18,VALID,0.17023,
2001-09-12, 00:21:00,VALID,917.686,VALID,0,VALID,99.25,VALID,0,VALID,19.9042,VALID,30,VALID,0,
2001-09-12, 00:22:00,VALID,917.638,VALID,0,VALID,99.2487,VALID,-0.0169808,VALID,19.9035,VALID,36,VALID,0.000200321,
2001-09-12, 00:23:00,VALID,917.608,VALID,0,VALID,99.2449,VALID,-0.0169808,VALID,19.9169,VALID,175,VALID,0.206027,
2001-09-12, 00:24:00,VALID,917.567,VALID,0,VALID,99.236,VALID,-0.0169808,VALID,19.9,VALID,188,VALID,0.395703,
2001-09-12, 00:25:00,VALID,917.542,VALID,0,VALID,99.2386,VALID,-0.0169808,VALID,19.9167,VALID,187,VALID,0.778863,
2001-09-12, 00:26:00,VALID,917.515,VALID,0,VALID,99.2487,VALID,-0.0169808,VALID,19.9097,VALID,202,VALID,0.526259,
2001-09-12, 00:27:00,VALID,917.506,VALID,0,VALID,99.2373,VALID,-0.0169808,VALID,19.9229,VALID,219,VALID,0.331731,
2001-09-12, 00:28:00,VALID,917.5,VALID,0,VALID,99.2551,VALID,0,VALID,19.9358,VALID,245,VALID,0.238281,
2001-09-12, 00:29:00,VALID,917.499,VALID,0,VALID,99.2487,VALID,0,VALID,19.9388,VALID,275,VALID,0.151316,
2001-09-12, 00:30:00,VALID,917.497,VALID,0,VALID,99.2475,VALID,0,VALID,19.9587,VALID,276,VALID,0,
2001-09-12, 00:31:00,VALID,917.496,VALID,0,VALID,99.2525,VALID,0,VALID,19.9616,VALID,276,VALID,0,
2001-09-12, 00:32:00,VALID,917.506,VALID,0,VALID,99.25,VALID,0,VALID,19.9746,VALID,275,VALID,0,
2001-09-12, 00:33:00,VALID,917.512,VALID,0,VALID,99.2589,VALID,0,VALID,19.991,VALID,216,VALID,0.0968339,
2001-09-12, 00:34:00,VALID,917.513,VALID,0,VALID,99.2437,VALID,0,VALID,19.9673,VALID,151,VALID,0.436699,
2001-09-12, 00:35:00,VALID,917.518,VALID,0,VALID,99.2475,VALID,0,VALID,19.9577,VALID,155,VALID,0.0190304,
2001-09-12, 00:36:00,VALID,917.506,VALID,0,VALID,99.2386,VALID,-0.0339617,VALID,19.9584,VALID,155,VALID,0,
2001-09-12, 00:37:00,VALID,917.508,VALID,0,VALID,99.2449,VALID,-0.0339617,VALID,19.9554,VALID,155,VALID,0,
2001-09-12, 00:38:00,VALID,917.483,VALID,0,VALID,99.2551,VALID,-0.0169808,VALID,19.9679,VALID,155,VALID,0.00120192,
2001-09-12, 00:39:00,VALID,917.482,VALID,0,VALID,99.2627,VALID,-0.0339617,VALID,19.9872,VALID,155,VALID,0.000600962,
2001-09-12, 00:40:00,VALID,917.455,VALID,0,VALID,99.2513,VALID,-0.0509425,VALID,20.0069,VALID,165,VALID,0.198759,
2001-09-12, 00:41:00,VALID,917.435,VALID,0,VALID,99.2602,VALID,-0.0509425,VALID,20.0039,VALID,179,VALID,0.150905,
2001-09-12, 00:42:00,VALID,917.434,VALID,0,VALID,99.2653,VALID,-0.0509425,VALID,20.0136,VALID,179,VALID,0,
2001-09-12, 00:43:00,VALID,917.422,VALID,0,VALID,99.2691,VALID,-0.0169808,VALID,20.0071,VALID,179,VALID,0.09375,
2001-09-12, 00:44:00,VALID,917.418,VALID,0,VALID,99.2691,VALID,-0.0339617,VALID,20.0133,VALID,163,VALID,0.524957,
2001-09-12, 00:45:00,VALID,917.414,VALID,0,VALID,99.2551,VALID,-0.0169808,VALID,19.9967,VALID,173,VALID,0.635485,
2001-09-12, 00:46:00,VALID,917.41,VALID,0,VALID,99.25,VALID,0.0169808,VALID,19.9994,VALID,171,VALID,0.621199,
2001-09-12, 00:47:00,VALID,917.403,VALID,0,VALID,99.2653,VALID,0.0339617,VALID,19.9701,VALID,177,VALID,0.551786,
2001-09-12, 00:48:00,VALID,917.398,VALID,0,VALID,99.264,VALID,0,VALID,19.944,VALID,179,VALID,0.381696,
2001-09-12, 00:49:00,VALID,917.394,VALID,0,VALID,99.2678,VALID,0.0339617,VALID,19.9539,VALID,173,VALID,0.313528,
2001-09-12, 00:50:00,VALID,917.385,VALID,0,VALID,99.2754,VALID,0.0339617,VALID,19.9601,VALID,173,VALID,0.146835,
2001-09-12, 00:51:00,VALID,917.374,VALID,0,VALID,99.2754,VALID,0.0169808,VALID,19.9832,VALID,150,VALID,0.155273,
2001-09-12, 00:52:00,VALID,917.37,VALID,0,VALID,99.2742,VALID,0.0169808,VALID,19.9693,VALID,131,VALID,0.328125,
2001-09-12, 00:53:00,VALID,917.349,VALID,0,VALID,99.2665,VALID,0.0339617,VALID,19.98,VALID,95,VALID,0.40266,
2001-09-12, 00:54:00,VALID,917.322,VALID,0,VALID,99.2602,VALID,0.0169808,VALID,19.9572,VALID,86,VALID,0.404848,
2001-09-12, 00:55:01,VALID,917.302,VALID,0,VALID,99.2602,VALID,0,VALID,19.9313,VALID,72,VALID,0.821715,
2001-09-12, 00:56:00,VALID,917.287,VALID,0,VALID,99.2462,VALID,0,VALID,19.8925,VALID,78,VALID,0.86859,
2001-09-12, 00:57:00,VALID,917.274,VALID,0,VALID,99.2347,VALID,0,VALID,19.8506,VALID,90,VALID,0.59442,
2001-09-12, 00:58:00,VALID,917.291,VALID,0,VALID,99.2487,VALID,0.0169808,VALID,19.8245,VALID,108,VALID,0.528125,
2001-09-12, 00:59:00,VALID,917.3,VALID,0,VALID,99.2653,VALID,0,VALID,19.8406,VALID,115,VALID,0.0926649,
2001-09-12, 01:00:01,VALID,917.3,VALID,0,VALID,99.2856,VALID,0.0509425,VALID,19.857,VALID,67,VALID,0.565755,
2001-09-12, 01:01:00,VALID,917.317,VALID,0,VALID,99.292,VALID,0,VALID,19.8764,VALID,61,VALID,0.283573,
2001-09-12, 01:02:01,VALID,917.324,VALID,0,VALID,99.3136,VALID,0.0509425,VALID,19.8958,VALID,63,VALID,0.372738,
2001-09-12, 01:03:00,VALID,917.308,VALID,0,VALID,99.3238,VALID,0.0169808,VALID,19.9276,VALID,65,VALID,0.211571,
2001-09-12, 01:04:00,VALID,917.291,VALID,0,VALID,99.3174,VALID,0.0339617,VALID,19.9241,VALID,77,VALID,0.181166,
2001-09-12, 01:05:00,VALID,917.283,VALID,0,VALID,99.3212,VALID,0.0339617,VALID,19.9375,VALID,89,VALID,0.375893,
2001-09-12, 01:06:00,VALID,917.264,VALID,0,VALID,99.3199,VALID,0.0169808,VALID,19.9569,VALID,89,VALID,0.495888,
2001-09-12, 01:07:01,VALID,917.258,VALID,0,VALID,99.3187,VALID,0.0339617,VALID,19.9763,VALID,89,VALID,0.519848,
2001-09-12, 01:08:00,VALID,917.248,VALID,0,VALID,99.3161,VALID,0,VALID,19.9572,VALID,90,VALID,0.577363,
2001-09-12, 01:09:00,VALID,917.248,VALID,0,VALID,99.306,VALID,0.0169808,VALID,19.947,VALID,92,VALID,0.356055,
2001-09-12, 01:10:00,VALID,917.228,VALID,0,VALID,99.3098,VALID,0.0509425,VALID,19.9437,VALID,76,VALID,0.522615,
2001-09-12, 01:11:00,VALID,917.215,VALID,0,VALID,99.3098,VALID,0.0339617,VALID,19.9211,VALID,65,VALID,0.589021,
2001-09-12, 01:12:00,VALID,917.204,VALID,0,VALID,99.3174,VALID,0.0339617,VALID,19.905,VALID,41,VALID,0.757617,
2001-09-12, 01:13:00,VALID,917.201,VALID,0,VALID,99.3123,VALID,0.0169808,VALID,19.9052,VALID,55,VALID,0.817308,
2001-09-12, 01:14:01,VALID,917.189,VALID,0,VALID,99.306,VALID,0.0679233,VALID,19.8729,VALID,48,VALID,0.794196,
2001-09-12, 01:15:00,VALID,917.187,VALID,0,VALID,99.3085,VALID,0.0679233,VALID,19.8563,VALID,36,VALID,0.563867,
2001-09-12, 01:16:00,VALID,917.197,VALID,0,VALID,99.3072,VALID,-0.0679233,VALID,19.8911,VALID,30,VALID,0.764757,
2001-09-12, 01:17:01,VALID,917.205,VALID,0,VALID,99.3225,VALID,-0.101885,VALID,19.894,VALID,20,VALID,0.930532,
2001-09-12, 01:18:01,VALID,917.205,VALID,0,VALID,99.3212,VALID,-0.0679233,VALID,19.894,VALID,30,VALID,0.830128,
2001-09-12, 01:19:00,VALID,917.215,VALID,0,VALID,99.3199,VALID,-0.0679233,VALID,19.8811,VALID,33,VALID,0.571752,
2001-09-12, 01:20:00,VALID,917.219,VALID,0,VALID,99.3225,VALID,-0.101885,VALID,19.8811,VALID,36,VALID,0.483553,
2001-09-12, 01:21:00,VALID,917.228,VALID,0,VALID,99.3327,VALID,-0.101885,VALID,19.8968,VALID,32,VALID,0.404983,
2001-09-12, 01:22:00,VALID,917.234,VALID,0,VALID,99.3314,VALID,-0.0509425,VALID,19.9132,VALID,18,VALID,0.514974,
2001-09-12, 01:23:00,VALID,917.232,VALID,0,VALID,99.3352,VALID,-0.0509425,VALID,19.9388,VALID,34,VALID,0.520904,
2001-09-12, 01:24:00,VALID,917.22,VALID,0,VALID,99.3314,VALID,-0.0509425,VALID,19.9452,VALID,43,VALID,0.595806,
2001-09-12, 01:25:01,VALID,917.193,VALID,0,VALID,99.3339,VALID,-0.101885,VALID,19.9229,VALID,39,VALID,0.695513,
2001-09-12, 01:26:00,VALID,917.19,VALID,0,VALID,99.3377,VALID,-0.101885,VALID,19.9296,VALID,24,VALID,0.539463,
2001-09-12, 01:27:01,VALID,917.182,VALID,0,VALID,99.3479,VALID,-0.0679233,VALID,19.9455,VALID,28,VALID,0.63049,
2001-09-12, 01:28:00,VALID,917.171,VALID,0,VALID,99.3492,VALID,-0.0849042,VALID,19.9748,VALID,26,VALID,0.818462,
2001-09-12, 01:29:00,VALID,917.156,VALID,0,VALID,99.3352,VALID,-0.0509425,VALID,19.9748,VALID,22,VALID,0.879207,
2001-09-12, 01:30:00,VALID,917.148,VALID,0,VALID,99.3556,VALID,-0.0509425,VALID,19.9815,VALID,5,VALID,0.630609,
2001-09-12, 01:31:00,VALID,917.149,VALID,0,VALID,99.3517,VALID,-0.0509425,VALID,19.9907,VALID,8,VALID,0.619485,
2001-09-12, 01:32:00,VALID,917.148,VALID,0,VALID,99.3556,VALID,-0.0849042,VALID,20.0039,VALID,22,VALID,0.398849,
2001-09-12, 01:33:00,VALID,917.171,VALID,0,VALID,99.3505,VALID,-0.0509425,VALID,19.9932,VALID,16,VALID,0.335093,
2001-09-12, 01:34:00,VALID,917.176,VALID,0,VALID,99.3403,VALID,-0.0849042,VALID,19.9838,VALID,16,VALID,0.28125,
2001-09-12, 01:35:00,VALID,917.194,VALID,0,VALID,99.353,VALID,-0.0849042,VALID,19.9912,VALID,16,VALID,0.176215,
2001-09-12, 01:36:00,VALID,917.195,VALID,0,VALID,99.3492,VALID,-0.0849042,VALID,19.978,VALID,16,VALID,0.0421464,
2001-09-12, 01:37:01,VALID,917.2,VALID,0,VALID,99.3594,VALID,-0.0339617,VALID,19.9741,VALID,19,VALID,0,
2001-09-12, 01:38:00,VALID,917.209,VALID,0,VALID,99.353,VALID,-0.0509425,VALID,19.9907,VALID,32,VALID,0,
2001-09-12, 01:39:00,VALID,917.214,VALID,0,VALID,99.3632,VALID,-0.0679233,VALID,20.0133,VALID,32,VALID,0.15692,
2001-09-12, 01:40:01,VALID,917.205,VALID,0,VALID,99.3619,VALID,-0.0339617,VALID,20.026,VALID,32,VALID,0.224712,
2001-09-12, 01:41:01,VALID,917.206,VALID,0,VALID,99.3581,VALID,-0.0679233,VALID,20.0394,VALID,32,VALID,0.432492,
2001-09-12, 01:42:00,VALID,917.175,VALID,0,VALID,99.3657,VALID,-0.101885,VALID,20.0456,VALID,33,VALID,0.399023,
2001-09-12, 01:43:00,VALID,917.162,VALID,0,VALID,99.3683,VALID,-0.0509425,VALID,20.0193,VALID,25,VALID,0.486637,
2001-09-12, 01:44:01,VALID,917.148,VALID,0,VALID,99.353,VALID,-0.0509425,VALID,19.9999,VALID,29,VALID,0.470228,
2001-09-12, 01:45:00,VALID,917.122,VALID,0,VALID,99.3683,VALID,-0.0339617,VALID,20.0163,VALID,11,VALID,0.595353,
2001-09-12, 01:46:01,VALID,917.104,VALID,0,VALID,99.3746,VALID,-0.0169808,VALID,20.0126,VALID,16,VALID,0.48778,
2001-09-12, 01:47:00,VALID,917.093,VALID,0,VALID,99.3734,VALID,-0.0509425,VALID,20.0123,VALID,23,VALID,0.311699,
2001-09-12, 01:48:01,VALID,917.09,VALID,0,VALID,99.3734,VALID,-0.0339617,VALID,20.0156,VALID,24,VALID,0.107813,
2001-09-12, 01:49:00,VALID,917.092,VALID,0,VALID,99.3721,VALID,-0.0169808,VALID,20.033,VALID,12,VALID,0.829687,
2001-09-12, 01:50:00,VALID,917.086,VALID,0,VALID,99.3581,VALID,-0.0169808,VALID,20.0158,VALID,21,VALID,0.651042,
2001-09-12, 01:51:01,VALID,917.099,VALID,0,VALID,99.3721,VALID,-0.0339617,VALID,20.0126,VALID,17,VALID,0.127604,
2001-09-12, 01:52:00,VALID,917.077,VALID,0,VALID,99.3683,VALID,-0.0169808,VALID,20.0034,VALID,4,VALID,0.14337,
2001-09-12, 01:53:01,VALID,917.075,VALID,0,VALID,99.3644,VALID,-0.0169808,VALID,19.983,VALID,19,VALID,0,
2001-09-12, 01:54:00,VALID,917.074,VALID,0,VALID,99.3695,VALID,-0.0169808,VALID,19.9905,VALID,35,VALID,0,
2001-09-12, 01:55:00,VALID,917.067,VALID,0,VALID,99.367,VALID,-0.0849042,VALID,19.9967,VALID,66,VALID,0.0544764,
2001-09-12, 01:56:00,VALID,917.067,VALID,0,VALID,99.3708,VALID,-0.0509425,VALID,19.9838,VALID,120,VALID,0.398214,
2001-09-12, 01:57:00,VALID,917.055,VALID,0,VALID,99.3683,VALID,-0.0679233,VALID,19.9907,VALID,133,VALID,0.428043,
2001-09-12, 01:58:01,VALID,917.04,VALID,0,VALID,99.3708,VALID,-0.0169808,VALID,19.9838,VALID,133,VALID,0.438978,
2001-09-12, 01:59:00,VALID,917.037,VALID,0,VALID,99.3784,VALID,0,VALID,19.9808,VALID,133,VALID,0.406059,
2001-09-12, 02:00:00,VALID,917.03,VALID,0,VALID,99.3721,VALID,-0.0169808,VALID,19.9636,VALID,117,VALID,0.0445312,
2001-09-12, 02:01:01,VALID,917.024,VALID,0,VALID,99.3619,VALID,-0.0339617,VALID,19.98,VALID,69,VALID,0,
2001-09-12, 02:02:00,VALID,917.017,VALID,0,VALID,99.3619,VALID,-0.0339617,VALID,19.9972,VALID,61,VALID,0,
2001-09-12, 02:03:00,VALID,917.01,VALID,0,VALID,99.3695,VALID,-0.0509425,VALID,20.0096,VALID,51,VALID,0.49043,
2001-09-12, 02:04:00,VALID,916.994,VALID,0,VALID,99.3708,VALID,-0.0339617,VALID,19.9969,VALID,45,VALID,0.699319,
2001-09-12, 02:05:01,VALID,916.974,VALID,0,VALID,99.3721,VALID,-0.0339617,VALID,19.9606,VALID,41,VALID,0.823661,
2001-09-12, 02:06:00,VALID,916.958,VALID,0,VALID,99.3708,VALID,-0.0169808,VALID,19.9639,VALID,51,VALID,0.714453,
2001-09-12, 02:07:00,VALID,916.932,VALID,0,VALID,99.3734,VALID,-0.0169808,VALID,19.9587,VALID,52,VALID,0.29362,
2001-09-12, 02:08:01,VALID,916.906,VALID,0,VALID,99.381,VALID,-0.0509425,VALID,19.9611,VALID,35,VALID,0.413411,
2001-09-12, 02:09:01,VALID,916.883,VALID,0,VALID,99.3721,VALID,-0.0339617,VALID,19.9679,VALID,44,VALID,0.109175,
2001-09-12, 02:10:00,VALID,916.869,VALID,0,VALID,99.3772,VALID,-0.0339617,VALID,19.9547,VALID,46,VALID,0,
2001-09-12, 02:11:00,VALID,916.851,VALID,0,VALID,99.3683,VALID,-0.0679233,VALID,19.9549,VALID,59,VALID,0,
2001-09-12, 02:12:00,VALID,916.843,VALID,0,VALID,99.3734,VALID,-0.0849042,VALID,19.9221,VALID,107,VALID,0.287796,
2001-09-12, 02:13:00,VALID,916.824,VALID,0,VALID,99.3695,VALID,-0.0849042,VALID,19.9191,VALID,111,VALID,0.423177,
2001-09-12, 02:14:01,VALID,916.807,VALID,0,VALID,99.3873,VALID,-0.0509425,VALID,19.9194,VALID,114,VALID,0.519426,
2001-09-12, 02:15:00,VALID,916.789,VALID,0,VALID,99.3772,VALID,-0.0509425,VALID,19.9124,VALID,118,VALID,0.605263,
2001-09-12, 02:16:01,VALID,916.779,VALID,0,VALID,99.3848,VALID,0.0339617,VALID,19.9216,VALID,119,VALID,0.170072,
2001-09-12, 02:17:00,VALID,916.768,VALID,0,VALID,99.3899,VALID,0.0509425,VALID,19.9015,VALID,119,VALID,0.173077,
2001-09-12, 02:18:01,VALID,916.752,VALID,0,VALID,99.3848,VALID,0.0509425,VALID,19.9047,VALID,119,VALID,0.171664,
2001-09-12, 02:19:00,VALID,916.725,VALID,0,VALID,99.395,VALID,0.0339617,VALID,19.9114,VALID,126,VALID,0.0483141,
2001-09-12, 02:20:00,VALID,916.717,VALID,0,VALID,99.3861,VALID,0.0509425,VALID,19.9147,VALID,134,VALID,0.0861378,
2001-09-12, 02:21:00,VALID,916.695,VALID,0,VALID,99.3797,VALID,0.0509425,VALID,19.905,VALID,134,VALID,0.221354,
2001-09-12, 02:22:00,VALID,916.696,VALID,0,VALID,99.3899,VALID,0.0339617,VALID,19.9017,VALID,133,VALID,0.213925,
2001-09-12, 02:23:00,VALID,916.683,VALID,0,VALID,99.4001,VALID,0.0509425,VALID,19.9082,VALID,121,VALID,0.151727,
2001-09-12, 02:24:00,VALID,916.681,VALID,0,VALID,99.4001,VALID,0.0509425,VALID,19.9209,VALID,63,VALID,0.288851,
2001-09-12, 02:25:00,VALID,916.655,VALID,0,VALID,99.4013,VALID,0.0169808,VALID,19.9368,VALID,48,VALID,0.363498,
2001-09-12, 02:26:01,VALID,916.639,VALID,0,VALID,99.4064,VALID,0.0339617,VALID,19.9502,VALID,48,VALID,0.462674,
2001-09-12, 02:27:00,VALID,916.618,VALID,0,VALID,99.4013,VALID,0.0169808,VALID,19.9537,VALID,48,VALID,0.446752,
2001-09-12, 02:28:01,VALID,916.605,VALID,0,VALID,99.3988,VALID,0.0169808,VALID,19.9397,VALID,50,VALID,0.546875,
2001-09-12, 02:29:01,VALID,916.599,VALID,0,VALID,99.3937,VALID,0.0169808,VALID,19.9534,VALID,40,VALID,0.565179,
2001-09-12, 02:30:00,VALID,916.59,VALID,0,VALID,99.4026,VALID,0,VALID,19.944,VALID,40,VALID,0.273214,
2001-09-12, 02:31:00,VALID,916.594,VALID,0,VALID,99.4013,VALID,-0.0849042,VALID,19.9679,VALID,40,VALID,0.0304276,
2001-09-12, 02:32:01,VALID,916.588,VALID,0,VALID,99.4064,VALID,-0.0169808,VALID,19.9649,VALID,40,VALID,0,
2001-09-12, 02:33:00,VALID,916.598,VALID,0,VALID,99.3912,VALID,-0.0849042,VALID,19.9549,VALID,40,VALID,0.0255859,
2001-09-12, 02:34:01,VALID,916.604,VALID,0,VALID,99.4013,VALID,-0.0849042,VALID,19.9485,VALID,116,VALID,0.256785,
2001-09-12, 02:35:01,VALID,916.605,VALID,0,VALID,99.3912,VALID,-0.0679233,VALID,19.9517,VALID,146,VALID,0.585093,
2001-09-12, 02:36:00,VALID,916.598,VALID,0,VALID,99.3835,VALID,-0.0509425,VALID,19.9288,VALID,151,VALID,0.594151,
2001-09-12, 02:37:01,VALID,916.593,VALID,0,VALID,99.395,VALID,-0.0849042,VALID,19.8998,VALID,148,VALID,0.518029,
2001-09-12, 02:38:00,VALID,916.602,VALID,0,VALID,99.3848,VALID,-0.0679233,VALID,19.8742,VALID,148,VALID,0.581931,
2001-09-12, 02:39:01,VALID,916.605,VALID,0,VALID,99.3784,VALID,-0.0849042,VALID,19.8451,VALID,134,VALID,0.450446,
2001-09-12, 02:40:01,VALID,916.593,VALID,0,VALID,99.3835,VALID,-0.0339617,VALID,19.8386,VALID,134,VALID,0.207617,
2001-09-12, 02:41:00,VALID,916.586,VALID,0,VALID,99.3924,VALID,-0.101885,VALID,19.8257,VALID,134,VALID,0,
2001-09-12, 02:42:01,VALID,916.574,VALID,0,VALID,99.3975,VALID,-0.0339617,VALID,19.8225,VALID,133,VALID,0,
2001-09-12, 02:43:00,VALID,916.565,VALID,0,VALID,99.4051,VALID,-0.0509425,VALID,19.8252,VALID,132,VALID,0,
2001-09-12, 02:44:01,VALID,916.566,VALID,0,VALID,99.4153,VALID,-0.0339617,VALID,19.8486,VALID,132,VALID,0,
2001-09-12, 02:45:00,VALID,916.57,VALID,0,VALID,99.4115,VALID,-0.0509425,VALID,19.8645,VALID,132,VALID,0,
2001-09-12, 02:46:01,VALID,916.562,VALID,0,VALID,99.4255,VALID,-0.101885,VALID,19.8844,VALID,132,VALID,0,
2001-09-12, 02:47:00,VALID,916.574,VALID,0,VALID,99.4153,VALID,-0.101885,VALID,19.9035,VALID,132,VALID,0,
2001-09-12, 02:48:00,VALID,916.572,VALID,0,VALID,99.4242,VALID,-0.101885,VALID,19.9231,VALID,132,VALID,0,
2001-09-12, 02:49:01,VALID,916.588,VALID,0,VALID,99.4179,VALID,-0.0509425,VALID,19.9164,VALID,112,VALID,0,
2001-09-12, 02:50:00,VALID,916.575,VALID,0,VALID,99.4204,VALID,-0.0849042,VALID,19.9231,VALID,95,VALID,0,
2001-09-12, 02:51:01,VALID,916.583,VALID,0,VALID,99.4115,VALID,-0.101885,VALID,19.9326,VALID,91,VALID,0,
2001-09-12, 02:52:01,VALID,916.586,VALID,0,VALID,99.4128,VALID,-0.0849042,VALID,19.9102,VALID,86,VALID,0.169408,
2001-09-12, 02:53:01,VALID,916.587,VALID,0,VALID,99.4077,VALID,-0.101885,VALID,19.8943,VALID,86,VALID,0.00904605,
2001-09-12, 02:54:01,VALID,916.58,VALID,0,VALID,99.409,VALID,-0.0849042,VALID,19.8876,VALID,86,VALID,0,
2001-09-12, 02:55:01,VALID,916.57,VALID,0,VALID,99.4115,VALID,-0.101885,VALID,19.8781,VALID,87,VALID,0,
2001-09-12, 02:56:01,VALID,916.58,VALID,0,VALID,99.4115,VALID,-0.101885,VALID,19.8811,VALID,90,VALID,0,
2001-09-12, 02:57:01,VALID,916.585,VALID,0,VALID,99.414,VALID,-0.0849042,VALID,19.8742,VALID,90,VALID,0,
2001-09-12, 02:58:01,VALID,916.594,VALID,0,VALID,99.4102,VALID,-0.101885,VALID,19.8776,VALID,128,VALID,0,
2001-09-12, 02:59:01,VALID,916.599,VALID,0,VALID,99.4153,VALID,-0.0679233,VALID,19.8714,VALID,182,VALID,0,
2001-09-12, 03:00:01,VALID,916.594,VALID,0,VALID,99.4242,VALID,-0.0679233,VALID,19.8607,VALID,186,VALID,0,
2001-09-12, 03:01:01,VALID,916.61,VALID,0,VALID,99.428,VALID,0.0339617,VALID,19.8627,VALID,186,VALID,0,
2001-09-12, 03:02:01,VALID,916.622,VALID,0,VALID,99.428,VALID,0,VALID,19.8565,VALID,177,VALID,0,
2001-09-12, 03:03:01,VALID,916.626,VALID,0,VALID,99.428,VALID,0.0169808,VALID,19.8533,VALID,173,VALID,0,
2001-09-12, 03:04:01,VALID,916.63,VALID,0,VALID,99.4242,VALID,0,VALID,19.857,VALID,171,VALID,0,
2001-09-12, 03:05:01,VALID,916.625,VALID,0,VALID,99.4369,VALID,0,VALID,19.8699,VALID,171,VALID,0,
2001-09-12, 03:06:01,VALID,916.642,VALID,0,VALID,99.4306,VALID,0,VALID,19.8535,VALID,171,VALID,0,
2001-09-12, 03:07:01,VALID,916.646,VALID,0,VALID,99.4217,VALID,0,VALID,19.8573,VALID,171,VALID,0,
2001-09-12, 03:08:01,VALID,916.661,VALID,0,VALID,99.4318,VALID,0,VALID,19.8406,VALID,167,VALID,0.0604968,
2001-09-12, 03:09:01,VALID,916.667,VALID,0,VALID,99.428,VALID,0.0339617,VALID,19.8406,VALID,159,VALID,0.290118,
2001-09-12, 03:10:01,VALID,916.665,VALID,0,VALID,99.4357,VALID,0,VALID,19.8404,VALID,162,VALID,0.363898,
2001-09-12, 03:11:00,VALID,916.682,VALID,0,VALID,99.4293,VALID,0.0169808,VALID,19.8307,VALID,162,VALID,0.519231,
2001-09-12, 03:12:00,VALID,916.674,VALID,0,VALID,99.4357,VALID,0,VALID,19.8312,VALID,153,VALID,0.493389,
2001-09-12, 03:13:00,VALID,916.675,VALID,0,VALID,99.4306,VALID,0.0339617,VALID,19.8081,VALID,143,VALID,0.325827,
2001-09-12, 03:14:00,VALID,916.667,VALID,0,VALID,99.428,VALID,0,VALID,19.8118,VALID,146,VALID,0.552837,
2001-09-12, 03:15:00,VALID,916.672,VALID,0,VALID,99.4357,VALID,0.0509425,VALID,19.8083,VALID,132,VALID,0.478885,
2001-09-12, 03:16:00,VALID,916.665,VALID,0,VALID,99.4217,VALID,-0.101885,VALID,19.7969,VALID,112,VALID,0.330078,
2001-09-12, 03:17:00,VALID,916.66,VALID,0,VALID,99.4166,VALID,-0.0849042,VALID,19.7902,VALID,112,VALID,0.463325,
2001-09-12, 03:18:00,VALID,916.655,VALID,0,VALID,99.4179,VALID,-0.0509425,VALID,19.7646,VALID,109,VALID,0.53824,
2001-09-12, 03:19:00,VALID,916.645,VALID,0,VALID,99.4217,VALID,-0.0849042,VALID,19.7487,VALID,119,VALID,0.504223,
2001-09-12, 03:20:00,VALID,916.632,VALID,0,VALID,99.4331,VALID,-0.0849042,VALID,19.7519,VALID,125,VALID,0.257143,
2001-09-12, 03:21:00,VALID,916.627,VALID,0,VALID,99.4318,VALID,-0.0849042,VALID,19.7581,VALID,133,VALID,0.41942,
2001-09-12, 03:22:00,VALID,916.619,VALID,0,VALID,99.4242,VALID,-0.0849042,VALID,19.7484,VALID,132,VALID,0.553248,
2001-09-12, 03:23:00,VALID,916.589,VALID,0,VALID,99.4357,VALID,-0.101885,VALID,19.7519,VALID,136,VALID,0.336939,
2001-09-12, 03:24:00,VALID,916.581,VALID,0,VALID,99.4369,VALID,-0.101885,VALID,19.7648,VALID,139,VALID,0.692578,
2001-09-12, 03:25:00,VALID,916.565,VALID,0,VALID,99.4344,VALID,-0.101885,VALID,19.7708,VALID,134,VALID,0.442845,
2001-09-12, 03:26:00,VALID,916.541,VALID,0,VALID,99.4446,VALID,-0.0849042,VALID,19.7743,VALID,134,VALID,0.38978,
2001-09-12, 03:27:00,VALID,916.539,VALID,0,VALID,99.4395,VALID,-0.0849042,VALID,19.7743,VALID,135,VALID,0.379607,
2001-09-12, 03:28:00,VALID,916.541,VALID,0,VALID,99.4458,VALID,-0.0509425,VALID,19.7775,VALID,129,VALID,0.359175,
2001-09-12, 03:29:00,VALID,916.543,VALID,0,VALID,99.4496,VALID,-0.0849042,VALID,19.771,VALID,116,VALID,0.565104,
2001-09-12, 03:30:00,VALID,916.559,VALID,0,VALID,99.4382,VALID,-0.0679233,VALID,19.7618,VALID,114,VALID,0.364286,
2001-09-12, 03:31:00,VALID,916.556,VALID,0,VALID,99.4458,VALID,0.0169808,VALID,19.7536,VALID,114,VALID,0.009375,
2001-09-12, 03:32:00,VALID,916.57,VALID,0,VALID,99.4496,VALID,0,VALID,19.7502,VALID,118,VALID,0,
2001-09-12, 03:33:00,VALID,916.568,VALID,0,VALID,99.4509,VALID,0.0169808,VALID,19.7472,VALID,156,VALID,0.00499132,
2001-09-12, 03:34:00,VALID,916.555,VALID,0,VALID,99.4535,VALID,0.0169808,VALID,19.7539,VALID,223,VALID,0.202492,